Mason City, IA

8:40 AM CDT on March 24, 2017 (GMT -0500)
Mason City Municipal

Weather History for KMCW - May, 2014

Change the Weather History Date:

Thursday, May 8, 2014

  Actual Average Record
Temperature  
Mean Temperature 67 °F 56 °F  
Max Temperature 79 °F 68 °F 91 °F (1934)
Min Temperature 54 °F 44 °F 27 °F (1925)
Degree Days  
Heating Degree Days 0 10  
Month to date heating degree days 86 87  
Since 1 July heating degree days 8449 7487  
Cooling Degree Days 2 0  
Month to date cooling degree days 4 0  
Year to date cooling degree days 4 5  
Growing Degree Days 20 (Base 50)    
Moisture  
Dew Point 56 °F    
Average Humidity 57    
Maximum Humidity 84    
Minimum Humidity 30    
Precipitation  
Precipitation 0.01 in 0.14 in 1.46 in (1927)
Month to date precipitation 0.17 1.13  
Year to date precipitation 11.88 8.93  
Snow  
Snow 0.00 in 0.00 in 4.00 in (1938)
Month to date snowfall 0.0 0.1  
Since 1 July snowfall 58.0 41.3  
Snow Depth 0.00 in    
Sea Level Pressure  
Sea Level Pressure 29.63 in    
Wind  
Wind Speed 15 mph (South)    
Max Wind Speed 39 mph    
Max Gust Speed 51 mph    
Visibility 10 miles    
Events Rain , Thunderstorm    
T = Trace of Precipitation, MM = Missing Value Source: NWS Daily Summary

Daily Weather History Graph

Daily Weather History Graph

Search for Another Location

Airport or City:

Trip Planner

Search our weather history database for the weather conditions in past years. The results will help you decide how hot, cold, wet, or windy it might be!

Date:

Astronomy

May. 08, 2014 Rise Set
Actual Time 5:57 AM CDT 8:22 PM CDT
Civil Twilight 5:25 AM CDT 8:54 PM CDT
Nautical Twilight 4:46 AM CDT 9:34 PM CDT
Astronomical Twilight 4:01 AM CDT 10:19 PM CDT
Moon 2:14 PM CDT (5/8) 2:39 AM CDT (5/8)
Length of Visible Light 15h 29m
Length of Day
14h 25m
Waxing Gibbous, 65% of the Moon is Illuminated
May 8
Waxing Gibbous
May 14
Full
May 21
Last Quarter
May 28
New
Jun 5
First Quarter

Hourly Weather History & Observations

Time (CDT) Temp. Dew Point Humidity Pressure Visibility Wind Dir Wind Speed Gust Speed Precip Events Conditions
12:15 AM 72.0 °F 60.1 °F 66% 29.63 in 10.0 mi South 13.8 mph 27.6 mph N/A   Clear
12:53 AM 75.9 °F 48.0 °F 37% 29.57 in 10.0 mi South 17.3 mph 26.5 mph N/A   Clear
1:11 AM 79.0 °F 43.0 °F 28% 29.61 in 10.0 mi West 29.9 mph 36.8 mph N/A   Clear
1:22 AM 78.1 °F 45.0 °F 31% 29.62 in 10.0 mi West 26.5 mph 43.7 mph N/A   Clear
1:53 AM 75.2 °F 46.4 °F 36% 29.63 in 10.0 mi WSW 11.5 mph - N/A   Partly Cloudy
2:53 AM 78.1 °F 44.1 °F 30% 29.59 in 10.0 mi WSW 20.7 mph 26.5 mph N/A   Clear
3:53 AM 68.0 °F 53.1 °F 59% 29.60 in 10.0 mi West 19.6 mph 29.9 mph 0.00 in   Scattered Clouds
4:53 AM 66.0 °F 53.1 °F 63% 29.62 in 10.0 mi SSW 9.2 mph - N/A   Partly Cloudy
5:53 AM 63.0 °F 55.0 °F 75% 29.62 in 10.0 mi South 6.9 mph - 0.00 in   Clear
6:53 AM 64.0 °F 54.0 °F 70% 29.70 in 10.0 mi West 6.9 mph - N/A   Mostly Cloudy
7:53 AM 64.9 °F 55.9 °F 73% 29.70 in 10.0 mi North 5.8 mph - N/A   Partly Cloudy
8:53 AM 66.0 °F 55.0 °F 68% 29.70 in 10.0 mi East 6.9 mph - N/A   Clear
9:53 AM 70.0 °F 55.0 °F 59% 29.68 in 10.0 mi ESE 6.9 mph - N/A   Scattered Clouds
10:01 AM 70.0 °F 55.0 °F 59% 29.72 in 10.0 mi ESE 5.8 mph - N/A   Mostly Cloudy
10:42 AM 72.0 °F 57.0 °F 59% 29.71 in 10.0 mi SE 9.2 mph - N/A   Mostly Cloudy
10:53 AM 73.0 °F 57.9 °F 59% 29.67 in 10.0 mi SE 10.4 mph - N/A   Scattered Clouds
11:53 AM 75.0 °F 63.0 °F 66% 29.65 in 10.0 mi SSE 11.5 mph - N/A   Clear
12:53 PM 78.8 °F 62.6 °F 57% 29.66 in 10.0 mi South 18.4 mph 24.2 mph N/A   Scattered Clouds
1:53 PM 75.0 °F 63.0 °F 66% 29.60 in 10.0 mi SSE 20.7 mph 29.9 mph N/A   Mostly Cloudy
2:15 PM 73.9 °F 61.0 °F 64% 29.64 in 8.0 mi South 26.5 mph 39.1 mph 0.00 in Rain , Thunderstorm Light Rain
2:37 PM 72.0 °F 64.0 °F 76% 29.64 in 6.0 mi South 20.7 mph 32.2 mph 0.00 in Rain Light Rain
2:53 PM 73.9 °F 64.0 °F 71% 29.60 in 10.0 mi South 21.9 mph 28.8 mph 0.00 in   Mostly Cloudy
3:53 PM 75.2 °F 62.6 °F 65% 29.61 in 10.0 mi South 16.1 mph 27.6 mph N/A   Mostly Cloudy
4:53 PM 77.0 °F 61.0 °F 58% 29.57 in 10.0 mi South 21.9 mph 34.5 mph N/A   Scattered Clouds
5:53 PM 75.9 °F 60.1 °F 58% 29.58 in 10.0 mi South 21.9 mph 36.8 mph 0.00 in   Mostly Cloudy
6:53 PM 73.4 °F 59.0 °F 61% 29.60 in 10.0 mi South 17.3 mph 28.8 mph N/A   Scattered Clouds
7:53 PM 68.0 °F 61.0 °F 78% 29.56 in 10.0 mi South 26.5 mph 34.5 mph 0.01 in Rain , Thunderstorm Light Rain
8:28 PM 64.0 °F 55.9 °F 75% 29.61 in 10.0 mi South 15.0 mph - 0.00 in   Mostly Cloudy
8:53 PM 62.1 °F 55.9 °F 80% 29.58 in 10.0 mi SSE 13.8 mph - 0.00 in   Scattered Clouds
9:53 PM 64.0 °F 59.0 °F 84% 29.58 in 10.0 mi South 11.5 mph - N/A   Scattered Clouds
10:53 PM 63.0 °F 55.0 °F 75% 29.60 in 9.0 mi WSW 21.9 mph 28.8 mph N/A   Scattered Clouds
11:53 PM 57.0 °F 51.1 °F 81% 29.61 in 10.0 mi WSW 21.9 mph 29.9 mph N/A   Clear